Location: *
(51.8167°N, 12.5000°E)
Time: 16:08:08
(UTC+00:00)

Landsat 7 - Pass Details

Date: 16 September 2019
Orbit: 701 x 703 km, 98.1° (Epoch: 17 October)

Event Time Altitude Azimuth Distance (km) Brightness Sun altitude
Exits shadow 19:46:17 42° 79° (E) 1,006 4.3 -21.4°
Maximum altitude 19:46:38 43° 67° (ENE) 995 4.3 -21.5°
Drops below altitude 10° 19:51:09 10° 357° (N) 2,184 6.9 -22.0°
Sets 19:53:29 0° 350° (N) 3,106 7.8 -22.3°
